Washington, IA

8:14 PM CST on December 03, 2016 (GMT -0600)
Washington Municipal

Weather History for KAWG - April, 2014

Change the Weather History Date:

Tuesday, April 29, 2014

  Actual Average Record
Temperature  
Mean Temperature 50 °F -  
Max Temperature 59 °F 66 °F 91 °F (2007)
Min Temperature 41 °F 46 °F 33 °F (2008)
Degree Days  
Heating Degree Days 15    
Moisture  
Dew Point 47 °F    
Average Humidity 86    
Maximum Humidity 100    
Minimum Humidity 63    
Precipitation  
Precipitation 0.02 in - - ()
Sea Level Pressure  
Sea Level Pressure 29.49 in    
Wind  
Wind Speed 9 mph (SSW)    
Max Wind Speed 18 mph    
Max Gust Speed 25 mph    
Visibility 9 miles    
Events Rain    
Averages and records for this station are not official NWS values.
T = Trace of Precipitation, MM = Missing Value Source: NWS Daily Summary

Daily Weather History Graph

Daily Weather History Graph

Search for Another Location

Airport or City:

Trip Planner

Search our weather history database for the weather conditions in past years. The results will help you decide how hot, cold, wet, or windy it might be!

Date:

Astronomy

Apr. 29, 2014 Rise Set
Actual Time 6:06 AM CDT 8:01 PM CDT
Civil Twilight 5:37 AM CDT 8:31 PM CDT
Nautical Twilight 5:00 AM CDT 9:08 PM CDT
Astronomical Twilight 4:21 AM CDT 9:47 PM CDT
Moon 6:25 AM CDT (4/29) 8:42 PM CDT (4/29)
Length of Visible Light 14h 54m
Length of Day
13h 55m
New Moon, 0% of the Moon is Illuminated
Apr 29
New Moon
May 6
First Quarter
May 14
Full
May 21
Last Quarter
May 28
New

Hourly Weather History & Observations

Time (CDT) Temp. Windchill Dew Point Humidity Pressure Visibility Wind Dir Wind Speed Gust Speed Precip Events Conditions
12:15 AM 50.0 °F - 46.4 °F 87% 29.45 in 10.0 mi ESE 9.2 mph - N/A   Overcast
12:35 AM 50.0 °F - 48.2 °F 94% 29.44 in 10.0 mi East 6.9 mph - N/A   Overcast
12:55 AM 50.0 °F - 48.2 °F 94% 29.44 in 10.0 mi ESE 9.2 mph - N/A   Overcast
1:15 AM 50.0 °F - 48.2 °F 94% 29.43 in 10.0 mi ESE 9.2 mph - N/A   Overcast
1:35 AM 50.0 °F - 48.2 °F 94% 29.43 in 10.0 mi ESE 8.1 mph - N/A   Overcast
1:55 AM 50.0 °F - 48.2 °F 94% 29.42 in 10.0 mi ESE 9.2 mph - N/A   Overcast
2:15 AM 50.0 °F - 48.2 °F 94% 29.42 in 10.0 mi ESE 10.4 mph - N/A   Overcast
2:35 AM 51.8 °F - 46.4 °F 82% 29.41 in 10.0 mi SE 8.1 mph - N/A   Overcast
2:55 AM 51.8 °F - 48.2 °F 88% 29.41 in 10.0 mi SE 5.8 mph - N/A   Overcast
3:15 AM 51.8 °F - 48.2 °F 88% 29.40 in 10.0 mi ESE 6.9 mph - N/A   Overcast
3:35 AM 51.8 °F - 48.2 °F 88% 29.40 in 10.0 mi SE 6.9 mph - N/A   Overcast
3:55 AM 51.8 °F - 48.2 °F 88% 29.40 in 10.0 mi SE 6.9 mph - N/A   Overcast
4:15 AM 50.0 °F - 48.2 °F 94% 29.40 in 10.0 mi East 4.6 mph - N/A   Mostly Cloudy
4:35 AM 50.0 °F - 48.2 °F 94% 29.40 in 10.0 mi SE 6.9 mph - N/A   Overcast
4:55 AM 50.0 °F - 48.2 °F 94% 29.40 in 10.0 mi SE 5.8 mph - N/A   Overcast
5:15 AM 50.0 °F - 48.2 °F 94% 29.39 in 10.0 mi SE 4.6 mph - N/A   Overcast
5:35 AM 50.0 °F - 48.2 °F 94% 29.39 in 10.0 mi SSE 4.6 mph - N/A   Overcast
5:55 AM 50.0 °F - 48.2 °F 94% 29.39 in 10.0 mi SSE 5.8 mph - N/A   Overcast
6:15 AM 50.0 °F - 48.2 °F 94% 29.40 in 10.0 mi South 4.6 mph - N/A   Overcast
6:35 AM 50.0 °F - 48.2 °F 94% 29.40 in 10.0 mi SSE 4.6 mph - N/A   Overcast
6:55 AM 50.0 °F - 48.2 °F 94% 29.40 in 10.0 mi South 4.6 mph - N/A   Overcast
7:15 AM 51.8 °F - 48.2 °F 88% 29.41 in 10.0 mi SSW 5.8 mph - N/A   Overcast
7:35 AM 51.8 °F - 48.2 °F 88% 29.41 in 10.0 mi SW 5.8 mph - N/A   Overcast
7:55 AM 51.8 °F - 48.2 °F 88% 29.41 in 10.0 mi WSW 4.6 mph - N/A   Overcast
8:15 AM 51.8 °F - 48.2 °F 88% 29.42 in 10.0 mi WSW 5.8 mph - N/A   Overcast
8:35 AM 51.8 °F - 48.2 °F 88% 29.42 in 10.0 mi West 4.6 mph - N/A   Overcast
8:55 AM 51.8 °F - 48.2 °F 88% 29.42 in 10.0 mi WSW 4.6 mph - N/A   Overcast
9:15 AM 51.8 °F - 46.4 °F 82% 29.42 in 10.0 mi WSW 8.1 mph - N/A   Overcast
9:35 AM 53.6 °F - 48.2 °F 82% 29.43 in 10.0 mi SW 4.6 mph - N/A   Overcast
9:55 AM 53.6 °F - 46.4 °F 77% 29.43 in 10.0 mi SW 8.1 mph - N/A   Overcast
10:15 AM 53.6 °F - 46.4 °F 77% 29.44 in 10.0 mi WSW 8.1 mph - N/A   Overcast
10:35 AM 53.6 °F - 48.2 °F 82% 29.44 in 10.0 mi SSW 11.5 mph - N/A   Overcast
10:55 AM 55.4 °F - 48.2 °F 77% 29.45 in 10.0 mi SW 12.7 mph - N/A   Overcast
11:15 AM 55.4 °F - 48.2 °F 77% 29.45 in 10.0 mi SW 11.5 mph - N/A   Overcast
11:35 AM 55.4 °F - 46.4 °F 72% 29.45 in 10.0 mi SW 13.8 mph - N/A   Overcast
12:35 PM 57.2 °F - 48.2 °F 72% 29.46 in 10.0 mi WSW 10.4 mph - N/A   Unknown
12:55 PM 57.2 °F - 46.4 °F 67% 29.46 in 10.0 mi WSW 12.7 mph - N/A   Overcast
1:15 PM 55.4 °F - 46.4 °F 72% 29.47 in 10.0 mi SW 10.4 mph - N/A   Overcast
1:35 PM 55.4 °F - 46.4 °F 72% 29.47 in 10.0 mi SSW 12.7 mph - N/A   Overcast
1:55 PM 57.2 °F - 46.4 °F 67% 29.47 in 10.0 mi SSW 15.0 mph - N/A   Overcast
2:15 PM 57.2 °F - 46.4 °F 67% 29.47 in 10.0 mi SSW 15.0 mph - N/A   Overcast
2:35 PM 59.0 °F - 46.4 °F 63% 29.48 in 10.0 mi SSW 16.1 mph - N/A   Overcast
2:55 PM 59.0 °F - 46.4 °F 63% 29.49 in 10.0 mi SSW 16.1 mph - N/A   Mostly Cloudy
3:15 PM 57.2 °F - 46.4 °F 67% 29.49 in 10.0 mi SSW 17.3 mph - N/A   Overcast
3:35 PM 59.0 °F - 46.4 °F 63% 29.50 in 10.0 mi SSW 15.0 mph 20.7 mph N/A   Overcast
3:55 PM 59.0 °F - 46.4 °F 63% 29.50 in 10.0 mi SSW 18.4 mph - N/A   Mostly Cloudy
4:15 PM 55.4 °F - 48.2 °F 77% 29.51 in 10.0 mi South 18.4 mph 25.3 mph N/A   Overcast
4:35 PM 53.6 °F - 46.4 °F 77% 29.52 in 10.0 mi South 16.1 mph 24.2 mph N/A   Overcast
5:35 PM 51.8 °F - 46.4 °F 82% 29.55 in 8.0 mi SSW 15.0 mph - N/A   Overcast
5:55 PM 51.8 °F - 46.4 °F 82% 29.56 in 6.0 mi SW 12.7 mph - N/A Rain Light Rain
6:15 PM 51.8 °F - 48.2 °F 88% 29.56 in 6.0 mi SW 9.2 mph - N/A   Haze
6:35 PM 51.8 °F - 48.2 °F 88% 29.57 in 2.5 mi SSW 12.7 mph - N/A   Mostly Cloudy
6:55 PM 50.0 °F - 50.0 °F 100% 29.57 in 4.0 mi SSW 9.2 mph - N/A   Mostly Cloudy
7:15 PM 50.0 °F - 50.0 °F 100% 29.59 in 1.0 mi WNW 10.4 mph - N/A Rain Light Rain
7:35 PM 48.2 °F - 48.2 °F 100% 29.59 in 3.0 mi NNW 15.0 mph 23.0 mph N/A   Overcast
7:55 PM 48.2 °F - 46.4 °F 93% 29.61 in 5.0 mi NW 16.1 mph - 0.02 in   Overcast
8:15 PM 46.4 °F 39.8 °F 46.4 °F 100% 29.62 in 5.0 mi NW 16.1 mph 23.0 mph N/A   Overcast
8:35 PM 46.4 °F 40.7 °F 46.4 °F 100% 29.63 in 2.0 mi NW 12.7 mph 19.6 mph N/A   Overcast
9:35 PM 44.6 °F 37.8 °F 42.8 °F 93% 29.65 in 9.0 mi NW 15.0 mph 21.9 mph N/A   Overcast
9:55 PM 44.6 °F 38.4 °F 42.8 °F 93% 29.66 in 10.0 mi WNW 12.7 mph - N/A   Overcast
10:15 PM 42.8 °F 34.8 °F 41.0 °F 93% 29.66 in 10.0 mi WNW 17.3 mph - N/A   Overcast
10:35 PM 42.8 °F 35.8 °F 41.0 °F 93% 29.67 in 10.0 mi NW 13.8 mph 21.9 mph N/A   Overcast
10:55 PM 42.8 °F 36.2 °F 41.0 °F 93% 29.67 in 10.0 mi WNW 12.7 mph 19.6 mph N/A   Overcast
11:15 PM 41.0 °F 32.5 °F 41.0 °F 100% 29.68 in 10.0 mi WNW 17.3 mph - N/A   Overcast
11:35 PM 41.0 °F 32.8 °F 39.2 °F 93% 29.69 in 10.0 mi West 16.1 mph 23.0 mph N/A   Overcast
11:55 PM 41.0 °F 32.5 °F 37.4 °F 87% 29.69 in 10.0 mi WNW 17.3 mph - N/A   Overcast